Regional Weather Roundup
Issued by NWS

Home | Current Version | Previous Version | Text Only | Print | Product List | Glossary On
Versions: 1 2 3 4 5 6 7 8 9 10 11 12 13 14 15 16 17 18 19 20 21 22 23 24 25 26 27
000
ASUS42 KTBW 260610
RWRFL
FLORIDA REGIONAL WEATHER ROUNDUP
NATIONAL WEATHER SERVICE TAMPA BAY RUSKIN FL
200 AM EDT SUN OCT 26 2014

NOTE: "FAIR" INDICATES FEW OR NO CLOUDS BELOW 12,000 FEET WITH NO
SIGNIFICANT WEATHER AND/OR OBSTRUCTIONS TO VISIBILITY.


FLZ001>010-012>015-112-114-115-260700-
PANHANDLE FLORIDA

CITY           SKY/WX    TMP DP  RH WIND       PRES   REMARKS
PENSACOLA      CLEAR     60  52  74 NW3       30.03F
PENSACOLA NAS  CLEAR     54  52  93 CALM      30.04S
MILTON NAS     CLEAR     57  52  83 N5        30.04F
CRESTVIEW      CLEAR     49  48  97 CALM      30.05F
DUKE FIELD     FAIR      51  48  89 CALM      30.03F
VALPARAISO     CLEAR     58  51  75 N5        30.03F
MARY ESTHER    CLEAR     55  48  77 N6        30.02F
TRI COUNTY     FAIR      51  51 100 CALM      30.03F
PANAMA CITY    FAIR      53  49  86 NW5       30.02S
TYNDALL AFB    CLEAR     62  53  72 N3        30.02F
APALACHICOLA   CLEAR     58  50  75 CALM      30.01F

STATION/POSITION SKY/WX   TEMP    WIND        PRES    WAVE   SWELL
                          AIR SEA DIR/SP/G            HT/PER HT/PER
                          (F)     (DEG/KT/KT) (MB)    (FT/S) (FT/S)
30.1N   87.6W              74 77  360/  6/  8 1016.9F   1
29.2N   88.2W              74 78  340/ 12/ 14 1018.0F   2/ 4
28.8N   86.0W              76 79   20/ 12/ 16 1016.4F   3/ 4
PANAMA CITY BEAC           63 75  350/  6/  8 1016.6S
CAPE SAN BLAS    NOT AVBL
TOWER C                    72     360/ 12/ 13 1016.0F
28.5N   84.5W              75 80   30/ 10/ 14 1015.8F   2/ 3

$$
FLZ011-016>038-118-127-128-134-139-239-260700-
NORTH FLORIDA

CITY           SKY/WX    TMP DP  RH WIND       PRES   REMARKS
MARIANNA       LGT RAIN  52  52 100 CALM      30.02F
TALLAHASSEE    CLEAR     50  44  80 CALM      30.01S
PERRY          CLEAR     50  48  93 CALM      30.00F
CROSS CITY       N/A     50  47  89 CALM      30.00S
LAKE CITY      FAIR      48  48 100 CALM      30.00S
GAINESVILLE    CLEAR     49  47  93 CALM      30.00S
MAYPORT NAS    CLEAR     57  55  93 CALM      29.98F
JACKSONVILLE   CLEAR     50  50 100 CALM      29.98F
JAX NAS        CLEAR     61  53  75 W7        29.99S
JAX CRAIG      CLEAR     53  49  86 CALM      29.99S
JAX CECIL      CLEAR     46  46 100 CALM      29.99F
FERNANDINA BEA FAIR      61  57  88 CALM      29.97S
ST AUGUSTINE   CLEAR     56  52  86 CALM      29.99F

STATION/POSITION SKY/WX   TEMP    WIND        PRES    WAVE   SWELL
                          AIR SEA DIR/SP/G            HT/PER HT/PER
                          (F)     (DEG/KT/KT) (MB)    (FT/S) (FT/S)
SHELL POINT                62     360/  5/  6   N/A
KEATON BEACH               60      20/  4/  6 1016.0F
CEDAR KEY                  65     360/  4/  5 1016.3F
FERNANDINA                 63 73  230/  4/  4 1014.5F
30.7N   81.3W                 75                N/A     1/ 9
MAYPORT                    65 76  250/  4/  5   N/A
31.4N   80.9W              71 74  260/  8/ 10 1014.6F   1/10   2/10
ST AUGUSTINE               62     290/  8/  8 1015.7F

$$
FLZ040-043>046-052-053-057-058-063-144-260700-
INTERIOR CENTRAL FLORIDA

CITY           SKY/WX    TMP DP  RH WIND       PRES   REMARKS
OCALA          CLEAR     50  46  87 CALM      29.99F
THE VILLAGES     N/A     54  52  94 CALM      29.89F
LEESBURG       CLEAR     57  55  93 CALM      29.99F
ORLANDO EXEC   CLEAR     64  57  78 CALM      29.98F
ORLANDO INTL   CLEAR     59  56  89 CALM      29.99F
WINTER HAVEN   CLEAR     61  57  87 CALM      30.00S
LAKELAND       CLEAR     57  54  88 CALM      30.00S
BARTOW         FAIR      57  54  88 CALM      30.00S
OKEECHOBEE       N/A     59  59 100 MISG        N/A

$$
FLZ041-047-054-059-064-141-147-260700-
EAST CENTRAL FLORIDA

CITY           SKY/WX    TMP DP  RH WIND       PRES   REMARKS
DAYTONA BEACH  CLEAR     56  54  93 CALM      29.98F
DELAND         CLEAR     55  54  94 CALM      29.99F
JFK SPACE CTR  CLEAR     58  55  87 NW2       29.97F
CAPE CANAVERAL CLEAR     64  55  72 N5        29.96F HAZE
PATRICK AFB    CLEAR     70  57  63 N8        29.97F
MELBOURNE      CLEAR     67  58  72 NW7       29.97S
VERO BEACH     CLEAR     65  60  84 NW8       29.95F
FT PIERCE      CLEAR     67  61  81 NW6       29.95S
STUART         CLEAR     72  63  73 N9G17     29.94F

STATION/POSITION SKY/WX   TEMP    WIND        PRES    WAVE   SWELL
                          AIR SEA DIR/SP/G            HT/PER HT/PER
                          (F)     (DEG/KT/KT) (MB)    (FT/S) (FT/S)
28.5N   80.2W              74 80  340/ 12/ 14 1014.7F
28.9N   78.5W              75 81  340/ 10/ 14 1013.6F   4/ 5   3/ 5
TRIDENT PIER               68 78  350/  4/  6 1014.2F
28.4N   80.5W                 77                N/A     2/ 7
27.6N   80.2W                 79                N/A     4/ 5   2/11

$$
FLZ050-056-061-142-242-148-248-149-249-151-251-155-255-
160-260-260700-
WEST CENTRAL FLORIDA

CITY           SKY/WX    TMP DP  RH WIND       PRES   REMARKS
CRYSTAL RIVER  FAIR      52  50  93 CALM      29.99F
INVERNESS      FAIR      52  50  93 CALM      30.00F FOG
BROOKSVILLE    CLEAR     51  51 100 CALM      30.00F
ZEPHYRHILLS    FAIR      54  52  94 CALM      30.00F FOG
CLEARWATER     CLEAR     67  58  72 NE9       30.00S
TAMPA INTL     CLEAR     63  56  78 VRB3      30.00F
PLANT CITY     CLEAR     59  59 100 CALM      30.02S
MACDILL AFB    CLEAR     59  55  87 NE5       30.00S
ST PETERSBURG  CLEAR     69  60  73 NE9       29.98S
SARASOTA       CLEAR     64  58  80 NE7       29.98S
VENICE           N/A     61  57  88 NE8       29.99F

STATION/POSITION SKY/WX   TEMP    WIND        PRES    WAVE   SWELL
                          AIR SEA DIR/SP/G            HT/PER HT/PER
                          (F)     (DEG/KT/KT) (MB)    (FT/S) (FT/S)
CEDAR KEY                  65     360/  4/  5 1016.3F
28.5N   84.5W              75 80   30/ 10/ 14 1015.8F   2/ 3
27.3N   84.3W                 81                N/A     3/ 4
CLEARWATER BEACH NOT AVBL
MIDDLE TAMPA BAY           70      40/ 11/ 14 1015.9R
VENICE                     63 77   40/  7/  9 1015.0S

$$
FLZ066-069-070-075>078-162-262-165-265-260700-
SOUTHWEST FLORIDA AND KEYS

CITY           SKY/WX    TMP DP  RH WIND       PRES   REMARKS
PUNTA GORDA    CLEAR     62  57  83 N3        30.00S
FT MYERS       CLEAR     63  58  83 N6        29.96F
SOUTHWEST INTL CLEAR     63  57  81 N5        29.97S
NAPLES         CLEAR     68  59  73 N5        29.96S
MARATHON       CLEAR     74  66  76 N7        29.92F
KEY WEST NAS   CLEAR     74  65  73 NE6       29.93F
KEY WEST INTL  CLEAR     75  67  76 NE6       29.93F

STATION/POSITION SKY/WX   TEMP    WIND        PRES    WAVE   SWELL
                          AIR SEA DIR/SP/G            HT/PER HT/PER
                          (F)     (DEG/KT/KT) (MB)    (FT/S) (FT/S)
VENICE                     63 77   40/  7/  9 1015.0S
NAPLES                     68 80   30/  5/  7 1015.0S
26.0N   85.6W              76 80   10/ 12/ 17 1015.7F   3/ 5
DRY TORTUGAS               77      30/ 13/ 14 1014.0F
NW FL BAY                  75      50/  7/  8 1013.9F
SAND KEY                   76      50/ 17/ 19 1013.4F
SOMBRERO KEY               76      30/ 11/ 12 1013.7F
LONG KEY                   76 77   30/ 10/ 11 1014.2F
MOLASSES REEF              74 81  350/ 12/ 14 1013.0F

$$
FLZ067-068-071>074-168-172>174-260700-
SOUTHEAST FLORIDA

CITY           SKY/WX    TMP DP  RH WIND       PRES   REMARKS
W PALM BEACH   PTCLDY    68  65  90 NW7       29.91F
FT LAUDER-EXEC MOCLDY    71  64  78 NW3       29.93S
FT LAUDERDALE  MOCLDY    73  65  75 N7        29.92F
POMPANO BEACH  PTCLDY    72  64  76 NW7       29.93S
PEMBROKE PINES MOCLDY    71  64  78 NW8       29.94F
OPA LOCKA      CLOUDY    72  64  76 NW8       29.93F
MIAMI          PTCLDY    73  63  70 N6        29.93F
WEST KENDALL   CLEAR     72  65  78 N9        29.93F
HOMESTEAD      CLEAR     67  64  87 NW6       29.92F

STATION/POSITION SKY/WX   TEMP    WIND        PRES    WAVE   SWELL
                          AIR SEA DIR/SP/G            HT/PER HT/PER
                          (F)     (DEG/KT/KT) (MB)    (FT/S) (FT/S)
PORT EVERGLADES            73     310/  7/ 10 1013.2
VIRGINIA KEY               73 80  350/  5/ 10 1013.7S
LAKE WORTH                 70 79  300/  7/ 10 1012.8S
FOWEY ROCKS                75 81  340/ 17/ 18 1013.3F
SETTLEMENT POINT           76      20/ 13/ 15 1013.4F

$$




USA.gov is the U.S. government's official web portal to all federal, state and local government web resources and services.